Home > Weather > Halden > Past weeks

Flag for Norway Past Weather in Halden, Norway — Yesterday and Last 2 Weeks

Now
61 °F

Cool.


Feels Like: 61 °F
Forecast: 54 / 63 °F
Wind: 14 mph from West

Location: Stromtangen Fyr

Current Time: Aug 27, 2016 at 8:50:01 AM

Latest Report: Aug 27, 2016 at 8:00 AM


Visibility: N/A

Pressure: 29.96 "Hg

Humidity: 79%

Dew Point: 54 °F

Location of HaldenLocation

Past Weather in Halden — Graph

°F

Halden Temperature Yesterday

Maximum temperature yesterday: 68 °F (at 12:00 PM)
Minimum temperature yesterday: 63 °F (at 1:00 AM)
Average temperature yesterday: 65 °F

High & Low Weather Summary for the Past Weeks

 TemperatureHumidityPressure
High75 °F (Aug 17, 7:00 PM)98% (Aug 26, 1:00 AM)30.27 "Hg (Aug 26, 1:00 AM)
Low54 °F (Aug 15, 4:00 AM)71% (Aug 23, 3:00 PM)29.62 "Hg (Aug 13, 2:00 AM)
Average63 °F87%29.98 "Hg
* Reported Aug 12 7:00 AM — Aug 27 7:00 AM, Halden, Weather by CustomWeather, © 2016

Note: Actual official high and low records may vary slightly from our data, if they occured in-between our weather recording intervals... More about our weather records

Advertising

Halden Weather History for the Previous 24 Hours

Scroll right to see more
 ConditionsComfort  
Time TempWeatherWind HumidityBarometerVisibility
7:00 AM
Sat, Aug 27
61 °FCool.16 mph77%29.94 "HgN/A
6:00 AM61 °FCool.17 mph77%29.91 "HgN/A
5:00 AM62 °FCool.16 mph77%29.90 "HgN/A
4:00 AM62 °FCool.17 mph79%29.89 "HgN/A
3:00 AM62 °FCool.17 mph76%29.89 "HgN/A
2:00 AM62 °FMild.17 mph78%29.88 "HgN/A
1:00 AM63 °FMild.17 mph79%29.86 "HgN/A
12:00 AM63 °FMild.17 mph80%29.85 "HgN/A
10:00 PM
Fri, Aug 26
65 °FMild.17 mph76%29.82 "HgN/A
9:00 PM65 °FMild.15 mph80%29.80 "HgN/A
8:00 PM65 °FMild.14 mph84%29.78 "HgN/A
7:00 PM66 °FMild.15 mph83%29.76 "HgN/A
6:00 PM65 °FMild.16 mph90%29.74 "HgN/A
5:00 PM64 °FMild.16 mph94%29.74 "HgN/A
4:00 PM65 °FMild.15 mph93%29.73 "HgN/A
3:00 PM66 °FMild.14 mph89%29.74 "HgN/A
2:00 PM66 °FMild.14 mph89%29.75 "HgN/A
1:00 PM66 °FMild.15 mph88%29.77 "HgN/A
12:00 PM68 °FMild.14 mph78%29.78 "HgN/A
11:00 AM68 °FMild.6 mph78%29.81 "HgN/A
10:00 AM66 °FMild.5 mph86%29.84 "HgN/A
9:00 AM64 °FMild.5 mph92%29.85 "HgN/A
8:00 AM64 °FMild.6 mph97%29.87 "HgN/A
Weather by CustomWeather, © 2016

See weather overviewHow to use our weather pages